Location: Diati
(11.8376°N, 2.5966°E)
Time: 18:17:07
(UTC+00:00)

GPS 2-17 Rocket1 - Pass Details

Date: 21 September 2020
Orbit: 571 x 659 km, 20.3° (Epoch: 19 October)

Event Time Altitude Azimuth Distance (km) Brightness Sun altitude
Rises 18:49:46 0° 272° (W) 2,844 8.3 -16.4°
Reaches altitude 10° 18:52:12 10° 280° (W) 1,956 6.9 -17.0°
Maximum altitude 18:56:30 39° 349° (N) 927 4.0 -18.0°
Enters shadow 18:58:45 24° 43° (NE) 1,299 4.4 -18.6°
